Find UTMN-2

NORAD ID: 57203 Int'l Des: 2023-091 Owner: UTMN Country: RU operational
LEOCIRCULARRETROGRADESSO

实时位置

正在加载3D地球...

关于 UTMN-2

正在加载描述...

即将过境

Passes for default location (London). Set your location on the main map for personalized predictions.

高度历史

Loading altitude history...

两行轨道根数

1 57203U 23091AP 26107.28819502 .00007306 00000-0 24967-3 0 9990
2 57203 97.5131 173.7237 0006666 297.4166 62.6396 15.30574578155226
Epoch: Apr 17, 2026 • Age: 13 hours

当前状态

高度 475.2 km
速度 7.63 km/s
星下点 1.12°N, 36.06°E
发射日期 Jun 27, 2023
运行时间 2.8 years
类型 other

技术详情

分类 Payload
质量 4.00 kg
干质量 4.00 kg
总质量 4.00 kg
长度 0.30 m
直径 0.10 m
跨度 0.30 m
形状 Box
制造商 SPUT
平台类型 Cubesat 3U
阶段状态 In Orbit
所有者/国家 UTMN/RU

Most Searched